DW0156 Weather Reports


time (UTC)temp
C
wind
direction
speed
KPH
gust
KPH
rain 1hr
cm
rain 24hr
cm
rain mn
cm
humidity
%
barometer
mb
20260906205418 8 263 0.0 0.0 0.00 0.03 0.00 91 1028.7
20260906204314 8 263 0.0 0.0 0.00 0.03 0.00 91 1028.6
20260906203816 8 263 0.0 0.0 0.00 0.03 0.00 91 1028.6
20260906203302 8 263 0.0 0.0 0.00 0.03 0.00 90 1028.6
20260906202748 9 263 0.0 0.0 0.00 0.03 0.00 91 1028.2
20260906202253 9 263 0.0 0.0 0.00 0.03 0.00 90 1028.2
20260906201759 9 263 0.0 0.0 0.00 0.03 0.00 91 1028.2
20260906201255 9 263 0.0 0.0 0.00 0.03 0.00 91 1028.5
20260906200742 9 263 0.0 0.0 0.00 0.03 0.00 91 1028.5
20260906200243 10 263 0.0 0.0 0.00 0.03 0.00 91 1028.5
20260906195741 10 263 0.0 0.0 0.00 0.03 0.00 91 1028.1
20260906195238 10 263 0.0 0.0 0.00 0.03 0.00 91 1028.1
20260906194735 10 263 0.0 0.0 0.00 0.03 0.00 91 1028.1
20260906194230 10 263 0.0 0.0 0.00 0.03 0.00 91 1028.1
20260906193054 10 263 0.0 0.0 0.00 0.03 0.00 91 1028.1
20260906192602 10 263 0.0 0.0 0.00 0.03 0.00 91 1028.0
20260906191431 10 263 0.0 0.0 0.00 0.05 0.00 91 1028.0
20260906190913 10 263 0.0 0.0 0.00 0.05 0.00 91 1027.9
20260906190405 10 263 0.0 0.0 0.00 0.05 0.00 91 1027.9
20260906185912 10 263 0.0 3.2 0.00 0.05 0.00 91 1027.9
20260906185414 10 263 0.0 3.2 0.00 0.05 0.00 91 1027.5
20260906184919 10 263 0.0 1.6 0.00 0.05 0.00 91 1027.5
20260906184404 10 263 0.0 1.6 0.00 0.05 0.00 91 1027.5
20260906183852 10 263 0.0 0.0 0.00 0.05 0.00 91 1027.5
20260906183355 10 263 0.0 0.0 0.00 0.05 0.00 91 1027.5
20260906182849 11 263 0.0 4.8 0.00 0.05 0.00 91 1027.6
20260906182357 11 263 0.0 4.8 0.00 0.05 0.00 91 1027.6
20260906181840 11 263 0.0 4.8 0.00 0.08 0.00 91 1027.6
20260906181345 11 263 0.0 0.0 0.00 0.08 0.00 91 1027.5
20260906180230 10 263 0.0 3.2 0.00 0.08 0.00 91 1027.5
20260906175739 10 263 0.0 0.0 0.00 0.08 0.00 91 1027.5
20260906175244 10 263 0.0 0.0 0.00 0.08 0.00 91 1027.5
20260906174731 10 263 0.0 0.0 0.00 0.08 0.00 91 1027.5
20260906174231 10 263 0.0 0.0 0.00 0.08 0.00 91 1027.4
20260906173111 10 263 0.0 3.2 0.00 0.08 0.00 91 1027.4
20260906172557 10 263 0.0 0.0 0.00 0.08 0.00 91 1027.5
20260906172043 11 263 0.0 0.0 0.00 0.08 0.00 91 1027.5
20260906170859 11 263 0.0 0.0 0.00 0.08 0.00 91 1027.4
20260906170400 11 263 0.0 0.0 0.00 0.08 0.00 91 1027.4
20260906165855 11 263 0.0 4.8 0.00 0.08 0.00 91 1027.4
20260906163516 10 263 0.0 1.6 0.00 0.08 0.00 91 1027.4
20260906163007 10 263 0.0 0.0 0.00 0.08 0.00 91 1027.4
20260906162515 10 263 0.0 0.0 0.00 0.08 0.00 91 1027.5
20260906161957 10 263 0.0 3.2 0.00 0.08 0.00 91 1027.5
20260906161450 10 263 0.0 3.2 0.00 0.08 0.00 90 1027.5
20260906160941 10 263 0.0 0.0 0.00 0.08 0.00 90 1027.5
20260906160443 9 263 0.0 0.0 0.00 0.08 0.00 90 1027.5
20260906154722 9 263 0.0 0.0 0.00 0.08 0.00 89 1027.5
20260906154214 9 263 0.0 0.0 0.00 0.08 0.00 89 1027.5
20260906153042 9 263 0.0 0.0 0.00 0.08 0.00 89 1027.5
20260906152539 9 263 0.0 0.0 0.00 0.08 0.00 89 1027.5
20260906152039 9 263 0.0 0.0 0.00 0.08 0.00 89 1027.5
20260906151520 9 263 0.0 0.0 0.00 0.08 0.00 89 1027.5
20260906151027 10 263 0.0 0.0 0.00 0.08 0.00 89 1027.1
20260906150530 10 263 0.0 0.0 0.00 0.08 0.00 89 1027.1
20260906150013 10 263 0.0 0.0 0.00 0.08 0.00 89 1027.1
20260906145513 10 263 0.0 0.0 0.00 0.08 0.00 89 1027.1
20260906144350 10 263 0.0 0.0 0.00 0.08 0.00 89 1027.0
20260906143839 10 263 0.0 0.0 0.00 0.08 0.00 89 1027.0
20260906142658 10 263 0.0 0.0 0.00 0.08 0.08 88 1027.0
20260906142159 10 263 0.0 0.0 0.00 0.08 0.08 88 1027.0
20260906141653 10 263 0.0 0.0 0.00 0.08 0.08 88 1027.0
20260906141136 10 263 0.0 0.0 0.00 0.08 0.08 88 1027.1
20260906135349 10 263 0.0 0.0 0.00 0.08 0.08 87 1026.6
20260906134235 10 263 0.0 0.0 0.00 0.08 0.08 87 1026.5
20260906133716 10 263 0.0 0.0 0.00 0.08 0.08 87 1026.5
20260906133205 10 263 0.0 0.0 0.00 0.08 0.08 87 1026.5
20260906132656 10 263 0.0 0.0 0.00 0.08 0.08 87 1026.6
20260906132137 10 263 0.0 0.0 0.00 0.08 0.08 87 1026.6
20260906131621 10 263 0.0 0.0 0.00 0.08 0.08 87 1026.6
20260906131125 10 263 0.0 0.0 0.00 0.08 0.08 87 1026.8
20260906130625 11 263 0.0 0.0 0.00 0.08 0.08 86 1026.8
20260906130106 11 263 0.0 0.0 0.00 0.08 0.08 86 1026.8
20260906125549 11 263 0.0 0.0 0.00 0.08 0.08 87 1026.7
20260906125055 11 263 0.0 0.0 0.00 0.08 0.08 87 1026.7
20260906124558 11 263 0.0 0.0 0.00 0.08 0.08 87 1026.7
20260906124102 11 263 0.0 0.0 0.00 0.08 0.08 87 1026.5
20260906123558 11 263 0.0 3.2 0.00 0.08 0.08 87 1026.5
20260906123038 11 263 0.0 1.6 0.00 0.08 0.08 87 1026.5
20260906122532 11 263 0.0 4.8 0.00 0.08 0.08 87 1026.0
20260906122024 11 263 0.0 4.8 0.00 0.08 0.08 87 1026.0
20260906121525 11 263 1.6 3.2 0.00 0.08 0.08 86 1026.0
20260906121031 11 263 1.6 6.4 0.00 0.08 0.08 86 1026.0
20260906120516 11 263 1.6 1.6 0.00 0.08 0.08 86 1026.0
20260906120011 11 263 1.6 6.4 0.00 0.08 0.08 86 1026.0
20260906115515 11 263 1.6 3.2 0.00 0.08 0.08 86 1026.1
20260906115001 11 263 1.6 3.2 0.00 0.08 0.08 86 1026.1
20260906114506 11 263 1.6 3.2 0.00 0.08 0.08 85 1026.1
20260906114015 11 263 1.6 3.2 0.00 0.08 0.08 85 1026.1
20260906113459 11 263 0.0 3.2 0.00 0.08 0.08 85 1026.1
20260906112939 11 263 0.0 0.0 0.00 0.08 0.08 84 1026.1
20260906112433 11 263 0.0 0.0 0.00 0.08 0.08 84 1026.0
20260906111313 11 263 0.0 0.0 0.00 0.08 0.08 84 1026.0
20260906110756 12 263 0.0 0.0 0.00 0.08 0.08 84 1026.0
20260906110241 12 263 0.0 0.0 0.00 0.08 0.08 84 1026.0
20260906105727 12 263 0.0 0.0 0.00 0.08 0.08 84 1025.9
20260906105208 12 263 0.0 4.8 0.00 0.08 0.08 84 1025.9
20260906104715 12 263 1.6 4.8 0.00 0.08 0.08 84 1025.9
20260906104209 12 263 1.6 4.8 0.00 0.08 0.08 83 1025.6
20260906103710 12 263 0.0 4.8 0.00 0.08 0.08 83 1025.6
20260906103159 12 263 0.0 3.2 0.00 0.08 0.08 83 1025.6
20260906102701 12 263 0.0 0.0 0.00 0.08 0.08 83 1025.5
20260906102159 12 263 0.0 4.8 0.00 0.08 0.08 82 1025.5
20260906100427 13 263 0.0 0.0 0.00 0.08 0.08 81 1025.4
20260906095913 13 263 0.0 0.0 0.00 0.08 0.08 81 1025.4
20260906094725 13 263 0.0 0.0 0.00 0.08 0.08 80 1025.4
20260906094231 13 263 0.0 0.0 0.00 0.08 0.08 80 1025.2
20260906093734 13 263 0.0 0.0 0.00 0.08 0.08 80 1025.2
20260906093219 13 263 0.0 0.0 0.00 0.08 0.08 79 1025.2
20260906092701 13 263 0.0 0.0 0.00 0.08 0.08 79 1025.2
20260906092158 13 263 0.0 3.2 0.00 0.08 0.08 79 1025.2
20260906091702 13 263 0.0 4.8 0.00 0.08 0.08 79 1025.2
20260906091159 13 263 1.6 4.8 0.00 0.08 0.08 78 1025.2
20260906090652 13 263 1.6 8.0 0.00 0.08 0.08 78 1025.2
20260906090145 14 263 3.2 8.0 0.00 0.08 0.08 77 1025.2
20260906085642 14 263 3.2 8.0 0.00 0.08 0.08 76 1025.2
20260906085137 14 263 3.2 6.4 0.00 0.08 0.08 76 1025.2
20260906084623 14 263 3.2 6.4 0.00 0.08 0.08 75 1025.2
20260906084123 14 263 1.6 6.4 0.00 0.08 0.08 74 1025.0
20260906083618 14 263 1.6 6.4 0.00 0.08 0.08 74 1025.0
20260906082454 14 263 1.6 6.4 0.00 0.08 0.08 74 1024.9
20260906081957 14 263 1.6 6.4 0.00 0.08 0.08 75 1024.9
20260906080839 14 263 3.2 8.0 0.00 0.08 0.08 75 1024.7
20260906080334 14 263 3.2 8.0 0.00 0.08 0.08 74 1024.7
20260906075217 15 263 1.6 8.0 0.00 0.08 0.08 74 1024.5
20260906074051 15 263 3.2 9.7 0.00 0.08 0.08 73 1024.4
20260906073545 15 263 4.8 9.7 0.00 0.08 0.08 73 1024.4
20260906073047 15 263 4.8 9.7 0.00 0.08 0.08 72 1024.4
20260906072549 15 263 4.8 9.7 0.00 0.08 0.08 73 1024.3
20260906071425 15 263 3.2 9.7 0.00 0.08 0.08 73 1024.3
20260906070301 15 263 1.6 9.7 0.00 0.08 0.08 73 1024.2
20260906065809 15 263 3.2 9.7 0.00 0.08 0.08 73 1024.0
20260906065255 15 263 4.8 9.7 0.00 0.08 0.08 72 1024.0
20260906064742 15 263 4.8 9.7 0.00 0.08 0.08 72 1024.0
20260906063600 15 263 3.2 12.9 0.00 0.08 0.08 71 1023.8
20260906063109 15 263 3.2 12.9 0.00 0.08 0.08 72 1023.8
20260906062555 15 263 3.2 12.9 0.00 0.08 0.08 71 1023.8
20260906062058 15 263 4.8 12.9 0.00 0.08 0.08 73 1023.8
20260906061553 15 263 4.8 12.9 0.00 0.08 0.08 72 1023.8
20260906061047 15 263 4.8 12.9 0.00 0.08 0.08 73 1023.8
20260906060553 15 263 4.8 12.9 0.00 0.08 0.08 73 1023.8
20260906060050 15 263 4.8 9.7 0.00 0.08 0.08 74 1023.8
20260906055600 15 263 4.8 16.1 0.00 0.08 0.08 74 1023.7
20260906055043 15 263 3.2 16.1 0.00 0.08 0.08 75 1023.7
20260906054536 15 263 4.8 16.1 0.00 0.08 0.08 75 1023.7
20260906053412 15 263 6.4 16.1 0.00 0.08 0.08 74 1023.4
20260906052908 15 263 3.2 16.1 0.00 0.08 0.08 75 1023.4
20260906052416 15 263 4.8 16.1 0.00 0.08 0.08 76 1023.3
20260906051917 15 263 6.4 16.1 0.00 0.08 0.08 76 1023.3
20260906051425 15 263 4.8 14.5 0.00 0.08 0.08 76 1023.3
20260906050908 15 263 4.8 14.5 0.00 0.08 0.08 76 1023.3
20260906050410 15 263 4.8 12.9 0.00 0.08 0.08 76 1023.3
20260906045906 15 263 4.8 12.9 0.00 0.08 0.08 77 1023.2
20260906045404 15 263 4.8 12.9 0.00 0.08 0.08 77 1023.2
20260906044900 15 263 4.8 12.9 0.00 0.08 0.08 78 1023.2
20260906044407 15 263 4.8 12.9 0.00 0.08 0.08 78 1023.2
20260906043251 15 263 4.8 12.9 0.00 0.08 0.08 78 1023.3
20260906042759 15 263 6.4 16.1 0.00 0.08 0.08 79 1023.4
20260906041622 15 263 8.0 16.1 0.00 0.08 0.08 79 1023.4
20260906041132 15 263 6.4 14.5 0.00 0.08 0.08 79 1023.5
20260906040633 15 263 4.8 14.5 0.00 0.10 0.08 79 1023.5
20260906035518 15 263 6.4 14.5 0.00 0.10 0.08 80 1023.8
20260906035016 15 263 6.4 14.5 0.00 0.10 0.08 80 1023.8
20260906033838 14 263 6.4 14.5 0.00 0.10 0.08 80 1023.8
20260906033333 14 263 6.4 14.5 0.00 0.10 0.08 80 1023.8
20260906032825 14 263 6.4 14.5 0.00 0.10 0.08 79 1023.8
20260906032306 14 263 4.8 16.1 0.00 0.10 0.08 79 1023.8
20260906031814 14 263 4.8 16.1 0.00 0.10 0.08 79 1023.8
20260906031259 14 263 6.4 16.1 0.00 0.10 0.08 79 1023.9
20260906030801 14 263 6.4 16.1 0.00 0.10 0.08 79 1023.9
20260906030258 14 263 4.8 14.5 0.00 0.10 0.08 79 1023.9
20260906025803 14 263 4.8 14.5 0.00 0.10 0.08 79 1024.0
20260906025259 15 263 4.8 12.9 0.00 0.10 0.08 79 1024.0
20260906024805 15 263 3.2 12.9 0.00 0.10 0.08 78 1024.0
20260906024256 15 263 4.8 16.1 0.00 0.10 0.08 77 1023.9
20260906023804 15 263 4.8 16.1 0.00 0.10 0.08 76 1023.9
20260906023253 15 263 6.4 16.1 0.00 0.10 0.08 76 1023.9
20260906022745 16 263 6.4 16.1 0.00 0.10 0.08 76 1024.1
20260906022245 15 263 3.2 14.5 0.00 0.10 0.08 78 1024.1
20260906021113 15 263 4.8 12.9 0.00 0.10 0.08 77 1024.3
20260906020613 15 263 4.8 12.9 0.00 0.10 0.08 77 1024.3
20260906015443 15 263 4.8 12.9 0.00 0.10 0.08 80 1024.4
20260906014947 14 263 4.8 12.9 0.00 0.10 0.08 81 1024.4
20260906014451 14 263 4.8 12.9 0.00 0.10 0.08 81 1024.4
20260906013317 15 263 3.2 12.9 0.00 0.10 0.08 85 1024.3
20260906012812 14 263 1.6 12.9 0.00 0.10 0.08 85 1024.4
20260906012307 13 263 0.0 6.4 0.00 0.10 0.08 88 1024.4
20260906011751 13 263 1.6 6.4 0.00 0.10 0.08 87 1024.4
20260906011247 13 263 1.6 6.4 0.00 0.10 0.08 87 1024.3
20260906010736 13 263 1.6 6.4 0.00 0.10 0.08 87 1024.3
20260906010231 13 263 1.6 6.4 0.00 0.10 0.08 87 1024.3
20260906005730 13 263 1.6 6.4 0.00 0.10 0.08 88 1024.3
20260906004604 13 263 0.0 6.4 0.00 0.10 0.08 88 1024.3
20260906004044 13 263 0.0 6.4 0.00 0.10 0.08 88 1024.3
20260906003545 13 263 1.6 6.4 0.00 0.10 0.08 88 1024.3
20260906003047 13 263 3.2 9.7 0.00 0.10 0.08 88 1024.3
20260906002528 13 263 3.2 9.7 0.00 0.10 0.08 87 1024.3
20260906002016 13 263 3.2 17.7 0.00 0.10 0.08 87 1024.3
20260906000854 13 263 4.8 17.7 0.00 0.25 0.08 87 1024.3
20260906000340 13 263 3.2 17.7 0.00 0.25 0.08 88 1024.3
20260905235840 13 263 0.0 4.8 0.00 0.25 0.08 88 1024.1
20260905235337 12 263 0.0 3.2 0.00 0.25 0.08 88 1024.1
20260905234211 12 263 0.0 0.0 0.00 0.25 0.08 88 1023.9
20260905232453 13 263 3.2 9.7 0.00 0.25 0.08 87 1023.8
20260905231956 13 263 0.0 9.7 0.00 0.25 0.08 88 1023.8
20260905231436 13 263 0.0 1.6 0.00 0.25 0.08 89 1023.8
20260905230922 13 263 0.0 0.0 0.00 0.28 0.08 89 1023.5
20260905230408 13 263 0.0 0.0 0.00 0.46 0.08 90 1023.5
20260905225917 13 263 0.0 0.0 0.00 0.46 0.08 90 1023.5
20260905225413 13 263 0.0 3.2 0.00 0.46 0.08 91 1023.4
20260905224905 13 263 0.0 0.0 0.00 0.46 0.08 91 1023.4
20260905224407 13 263 0.0 0.0 0.00 0.46 0.08 91 1023.4
20260905223852 12 263 0.0 0.0 0.00 0.46 0.08 92 1023.2
20260905223341 12 263 0.0 0.0 0.00 0.46 0.08 92 1023.2
20260905222843 12 263 0.0 0.0 0.00 0.46 0.08 92 1022.8
20260905222345 12 263 0.0 0.0 0.00 0.46 0.08 91 1022.8
20260905221217 12 263 0.0 0.0 0.00 0.46 0.08 92 1022.7
20260905220727 11 263 0.0 0.0 0.00 0.46 0.08 92 1022.7
20260905220233 11 263 0.0 0.0 0.00 0.46 0.08 91 1022.7
20260905215730 11 263 0.0 0.0 0.00 0.46 0.08 91 1022.6
20260905215214 11 263 0.0 0.0 0.00 0.43 0.05 91 1022.6
20260905214718 11 263 0.0 0.0 0.00 0.43 0.05 91 1022.6
20260905214206 11 263 0.0 3.2 0.00 0.43 0.05 91 1022.3
20260905213648 11 263 0.0 0.0 0.00 0.43 0.05 91 1022.3
20260905213139 11 263 0.0 0.0 0.00 0.43 0.05 91 1022.3
20260905212635 11 263 0.0 0.0 0.00 0.43 0.05 90 1022.2
20260905211456 11 263 0.0 0.0 0.00 0.43 0.05 90 1022.2
20260905210942 11 263 0.0 0.0 0.00 0.43 0.05 90 1021.8
20260905210437 11 263 0.0 0.0 0.00 0.43 0.05 90 1021.8
20260905205945 11 263 0.0 0.0 0.00 0.43 0.05 90 1021.8